Powrót do katalogu

SAR LUPE 1

AktywnyMilitariaPO
NORAD 29658·PAYLOAD·🇩🇪 Germany

Wystrzelony Dec 19, 2006 z Plesetsk Cosmodrome

Loading…

Następne Przeloty (najbliższe 24 godziny)

TLE

Starzejące sięSource: Mike McCants

Epoka: Sep 5, 2026, 19:14 UTC

1 29658U 06060A   26248.80197491 0.00000000  00000-0  00000-0 0    06
2 29658  98.1129 287.7795 0002000 290.5808  69.4190 15.27404806    07

Śledź SAR LUPE 1 w czasie rzeczywistym z AllMySat

Download on the App Store